Location: Peach Mountain Observatory
(42.3967°N, 83.9367°W)
Time: 13:35:14
(UTC-05:00)

S-56A Canister/Altair - Pass Details

Date: 01 February 2020
Orbit: 633 x 2499 km, 38.9° (Epoch: 17 February)

Event Time Altitude Azimuth Distance (km) Brightness Sun altitude
Rises 21:49:45 0° 274° (W) 4,168 12.0 -44.2°
Reaches altitude 10° 21:53:06 10° 270° (W) 2,915 11.0 -44.8°
Enters shadow 21:55:02 18° 265° (W) 2,199 10.2 -45.1°
Maximum altitude 21:59:31 52° 196° (SSW) 1,010 - -45.9°
Drops below altitude 10° 22:04:14 10° 119° (ESE) 2,144 - -46.7°
Sets 22:06:22 0° 114° (ESE) 2,976 - -47.1°
